Location: Ferchesar
(52.6477°N, 12.4298°E)
Time: 01:36:34
(UTC+01:00)

BUGSAT 1 - Pass Details

Date: 01 November 2021
Orbit: 558 x 601 km, 98.1° (Epoch: 01 December)

Event Time Altitude Azimuth Distance (km) Brightness Sun altitude
Rises 05:09:36 0° 16° (NNE) 2,766 ? -18.2°
Reaches altitude 10° 05:11:45 10° 19° (NNE) 1,868 ? -17.8°
Maximum altitude 05:15:46 67° 103° (ESE) 619 ? -17.2°
Drops below altitude 10° 05:19:48 10° 187° (S) 1,873 ? -16.6°
Sets 05:21:58 0° 190° (S) 2,773 ? -16.3°
